#datint,netname,site,siteID,timestamp,IntT,BattV,AirT2,AirT,AirT_Avg,AirT_Max,AirT_Min,RH_Avg,RH_Max,RH_Min,EA_Avg,Td_Avg,Td_Max,Td_Min,WindS_Smp,WindS_Avg,WindD_Avg,WindD_SD,WindS_Max,ETo,ETr,SoilT4,SoilT8,SoilVWC8,SolarW_Avg,wetstate_Avg,wetT_Avg,Precip_accum,Precip_WPG,Precip_TB
15min,AgWx,beryljct,423,03MAY2020:00:00:00,52.4,12.94,52.6,52.1,51.2,52.2,50.2,46,53,42,0.560,31.3,34.3,29.9,5.152,5.0,180,6.2,6.7,0.00020,0.00029,59.6,58.0,17,0,.,.,13.53,0.00,0.00
15min,AgWx,beryljct,423,03MAY2020:00:15:00,51.8,12.93,50.9,50.9,52.0,53.1,50.9,45,49,40,0.628,31.0,32.7,29.5,6.489,6.2,162,4.9,7.8,0.00028,0.00039,59.3,58.0,17,0,.,.,13.53,0.00,0.00
15min,AgWx,beryljct,423,03MAY2020:00:30:00,51.3,12.91,45.8,48.9,50.0,51.5,47.8,52,62,47,0.648,33.2,35.5,32.0,2.17,4.9,171,12,6.9,0.00015,0.00022,59.1,58.0,17,0,.,.,13.53,0.00,0.00
15min,AgWx,beryljct,423,03MAY2020:00:45:00,50.3,12.91,49.1,47.3,47.3,48.6,46.4,62,66,56,0.723,34.9,36.5,33.4,1.578,2.6,170,13,4.3,-0.00006,-0.00005,58.9,57.9,17,0,.,.,13.53,0.01,0.00
15min,AgWx,beryljct,423,03MAY2020:01:00:00,49.3,12.91,49.8,48.1,47.9,50.6,46.7,60,66,50,0.645,34.7,36.3,32.8,4.253,1.7,135,85,4.6,-0.00013,-0.00016,58.6,57.9,16,0,.,.,13.54,0.00,0.00
15min,AgWx,beryljct,423,03MAY2020:01:15:00,48.8,12.89,43.5,46.4,48.2,50.0,45.9,53,59,48,0.628,31.8,33.2,30.8,3.529,4.0,60,15,5.6,0.00008,0.00014,58.4,57.9,17,0,.,.,13.54,0.00,0.00
15min,AgWx,beryljct,423,03MAY2020:01:30:00,48.0,12.89,49.8,50.2,46.2,50.2,43.3,61,72,49,0.599,33.3,35.0,31.5,5.568,4.3,129,25,8.0,0.00005,0.00009,58.2,57.8,17,0,.,.,13.54,0.01,0.00
15min,AgWx,beryljct,423,03MAY2020:01:45:00,47.9,12.87,48.9,48.1,48.3,50.1,47.1,55,58,49,0.633,32.9,33.4,31.5,5.152,4.9,144,15,8.3,0.00012,0.00018,58.0,57.8,17,0,.,.,13.54,0.00,0.00
15min,AgWx,beryljct,423,03MAY2020:02:00:00,47.8,12.87,47.6,46.8,47.9,49.7,46.1,57,64,50,0.657,33.2,34.7,31.9,2.411,3.3,142,29,7.7,0.00002,0.00005,57.7,57.7,17,0,.,.,13.54,0.00,0.00
15min,AgWx,beryljct,423,03MAY2020:02:15:00,47.5,12.87,45.8,47.2,47.6,49.1,46.6,57,61,52,0.631,33.3,34.1,32.5,0,2.0,79,53,5.6,-0.00009,-0.00009,57.5,57.7,17,0,.,.,13.54,0.00,0.00
15min,AgWx,beryljct,423,03MAY2020:02:30:00,47.1,12.85,47.1,47.7,46.8,48.6,45.5,58,62,54,0.621,33.0,33.6,32.3,2.696,3.0,52,30,4.9,-0.00002,0.00001,57.3,57.7,17,0,.,.,13.54,0.00,0.00
15min,AgWx,beryljct,423,03MAY2020:02:45:00,46.9,12.85,49.4,47.8,47.2,48.0,45.8,57,61,55,0.620,32.7,33.4,32.3,2.477,3.2,3.3,29,6.4,0.00001,0.00004,57.1,57.6,17,0,.,.,13.54,0.00,0.00
15min,AgWx,beryljct,423,03MAY2020:03:00:00,46.9,12.83,43.8,49.7,48.0,49.9,46.1,53,59,48,0.586,31.8,32.7,30.9,2.959,4.1,352,25,6.2,0.00008,0.00014,56.9,57.5,17,0,.,.,13.54,0.00,0.00
15min,AgWx,beryljct,423,03MAY2020:03:15:00,47.0,12.84,54.5,52.9,49.7,53.5,46.3,49,57,43,0.613,31.3,33.0,30.4,4.604,2.6,119,59,6.8,-0.00001,0.00002,56.7,57.5,17,0,.,.,13.54,0.00,0.00
15min,AgWx,beryljct,423,03MAY2020:03:30:00,48.7,12.84,58.2,58.3,55.6,58.3,51.2,38,45,33,0.557,30.3,32.0,29.1,9.34,7.9,201,34,15.0,0.00046,0.00061,56.5,57.4,17,0,.,.,13.53,0.00,0.00
15min,AgWx,beryljct,423,03MAY2020:03:45:00,51.8,12.82,59.0,59.0,58.8,59.3,58.3,32,33,31,0.538,29.2,30.0,28.5,10.52,11.1,220,8.5,14.6,0.00073,0.00091,56.3,57.3,17,0,.,.,13.53,0.00,0.00
15min,AgWx,beryljct,423,03MAY2020:04:00:00,53.6,12.82,56.9,57.2,58.4,59.2,57.2,33,36,30,0.570,29.4,30.4,28.2,8.35,9.9,212,7.1,13.5,0.00066,0.00083,56.2,57.3,16,0,.,.,13.53,0.00,0.00
15min,AgWx,beryljct,423,03MAY2020:04:15:00,54.2,12.82,55.6,55.8,56.4,57.1,55.8,36,38,35,0.573,30.0,30.9,29.5,7.366,8.0,210,7.3,9.8,0.00049,0.00065,56.0,57.2,17,0,.,.,13.53,0.00,0.00
15min,AgWx,beryljct,423,03MAY2020:04:30:00,54.1,12.82,56.2,56.0,55.8,56.1,55.5,37,38,36,0.558,30.0,30.4,29.4,8.42,7.6,212,5.3,9.6,0.00046,0.00061,55.8,57.2,17,0,.,.,13.53,0.00,0.00
15min,AgWx,beryljct,423,03MAY2020:04:45:00,54.0,12.79,55.7,55.7,55.7,56.0,55.2,37,38,36,0.558,29.9,30.3,29.5,6.533,7.2,210,4.7,8.9,0.00044,0.00058,55.7,57.1,17,0,.,.,13.53,0.00,0.00
15min,AgWx,beryljct,423,03MAY2020:05:00:00,53.8,12.81,55.2,55.2,55.3,55.7,55.0,38,38,37,0.555,30.0,30.4,29.6,6.993,7.0,203,6.4,8.6,0.00042,0.00056,55.6,57.0,16,0,.,.,13.53,0.00,0.00
15min,AgWx,beryljct,423,03MAY2020:05:15:00,53.6,12.81,55.6,54.8,55.3,55.6,54.6,37,39,36,0.564,29.6,30.3,29.0,5.963,7.0,205,5.6,9.3,0.00042,0.00056,55.4,57.0,17,0,.,.,13.52,0.00,0.00
15min,AgWx,beryljct,423,03MAY2020:05:30:00,53.2,12.81,45.2,46.8,53.6,55.0,46.8,40,53,37,0.581,30.0,30.9,29.5,4.998,4.7,236,45,6.9,0.00023,0.00034,55.3,56.9,17,0,.,.,13.52,0.00,0.00
15min,AgWx,beryljct,423,03MAY2020:05:45:00,51.2,12.8,44.4,44.5,45.1,46.7,43.8,56,61,51,0.566,30.4,31.0,29.3,4.034,4.2,322,34,7.0,0.00007,0.00012,55.2,56.8,17,0,.,.,13.53,0.01,0.00
15min,AgWx,beryljct,423,03MAY2020:06:00:00,49.3,12.79,46.5,46.5,47.3,48.5,44.5,48,57,45,0.542,28.6,30.1,28.0,2.631,4.0,348,27,10.0,0.00045,0.00079,55.1,56.8,17,0,.,.,13.53,0.00,0.00
15min,AgWx,beryljct,423,03MAY2020:06:15:00,47.8,12.8,45.4,44.5,45.4,46.8,43.3,53,60,49,0.557,29.2,30.6,28.1,1.206,2.5,49,88,6.4,0.00027,0.00047,55.0,56.7,17,0,.,.,13.53,0.00,0.00
15min,AgWx,beryljct,423,03MAY2020:06:30:00,46.3,12.8,45.0,45.2,44.5,45.4,42.9,55,61,52,0.531,29.4,30.4,28.6,0,1.4,127,76,4.4,0.00015,0.00026,54.8,56.7,16,1,.,.,13.53,0.00,0.00
15min,AgWx,beryljct,423,03MAY2020:06:45:00,45.1,12.79,43.4,45.5,45.0,46.1,42.6,53,61,49,0.530,28.8,30.2,28.0,2.346,1.1,281,35,4.1,0.00018,0.00027,54.7,56.6,16,9,.,.,13.53,0.00,0.00
15min,AgWx,beryljct,423,03MAY2020:07:00:00,44.3,12.82,43.5,42.7,43.1,45.5,41.1,60,67,50,0.587,30.0,31.4,28.1,1.578,1.5,279,39,3.6,0.00034,0.00046,54.5,56.6,17,40,.,.,13.53,0.00,0.00
15min,AgWx,beryljct,423,03MAY2020:07:15:00,44.3,12.85,45.4,46.1,44.2,46.2,42.0,61,70,50,0.582,31.6,34.5,28.4,2.126,1.2,230,20,2.1,0.00048,0.00058,54.4,56.5,17,81,.,.,13.53,0.00,0.00
15min,AgWx,beryljct,423,03MAY2020:07:30:00,45.2,12.85,47.8,47.7,46.8,48.4,45.1,59,72,49,0.809,32.9,39.1,29.9,0,2.0,169,19,3.0,0.00075,0.00094,54.3,56.4,17,131,.,.,13.53,0.00,0.00
15min,AgWx,beryljct,423,03MAY2020:07:45:00,46.9,12.84,49.3,49.2,48.5,49.2,47.6,68,76,62,0.754,38.5,41.4,35.9,3.091,0.9,141,26,3.2,0.00083,0.00093,54.1,56.4,17,163,.,.,13.53,0.00,0.00
15min,AgWx,beryljct,423,03MAY2020:08:00:00,49.1,12.87,50.6,50.6,49.5,50.7,48.7,63,71,59,0.781,37.5,39.8,35.7,0.132,1.6,106,7.0,3.2,0.00113,0.00131,54.0,56.3,16,215,.,.,13.53,0.00,0.00
15min,AgWx,beryljct,423,03MAY2020:08:15:00,51.2,12.93,51.6,51.4,50.9,51.4,50.6,63,68,60,0.802,38.8,40.9,37.3,3.749,2.4,152,7.2,3.7,0.00134,0.00158,53.9,56.2,17,241,.,.,13.52,0.00,0.00
15min,AgWx,beryljct,423,03MAY2020:08:30:00,53.2,13,54.6,54.6,53.0,54.6,51.4,60,63,56,0.847,39.4,40.9,37.9,1.82,2.3,161,11,3.7,0.00165,0.00192,53.8,56.2,17,292,.,.,13.53,0.01,0.00
15min,AgWx,beryljct,423,03MAY2020:08:45:00,55.3,13.14,56.0,55.9,55.3,56.1,54.5,56,59,51,0.842,39.8,41.6,37.8,2.609,0.9,76,41,2.6,0.00182,0.00202,53.7,56.1,17,323,.,.,13.53,0.00,0.00
15min,AgWx,beryljct,423,03MAY2020:09:00:00,57.3,13.34,56.8,56.7,56.3,56.8,55.9,51,58,46,0.731,38.3,42.1,35.5,2.061,2.4,94,12,3.9,0.00219,0.00255,53.6,56.1,16,364,.,.,13.52,0.00,0.00
15min,AgWx,beryljct,423,03MAY2020:09:15:00,59.3,13.64,58.6,58.4,57.5,58.4,56.7,46,52,42,0.834,36.8,40.8,34.2,2.192,2.2,107,7.3,3.0,0.00266,0.00305,53.6,56.0,16,447,.,.,13.52,0.00,0.00
15min,AgWx,beryljct,423,03MAY2020:09:30:00,61.5,14.25,61.4,61.7,59.5,61.7,58.4,47,52,42,0.843,39.1,41.0,36.5,0,1.5,141,23,3.0,0.00301,0.00337,53.6,55.9,16,507,.,.,13.52,0.00,0.00
15min,AgWx,beryljct,423,03MAY2020:09:45:00,64.3,14.24,63.9,64.2,63.3,64.8,61.6,41,53,32,0.845,39.2,44.8,34.5,5.897,3.0,220,32,11.2,0.00349,0.00406,53.6,55.9,16,539,.,.,13.52,0.00,0.00
15min,AgWx,beryljct,423,03MAY2020:10:00:00,65.8,14.23,64.2,64.8,64.6,65.2,63.5,37,49,31,0.767,37.7,44.1,34.0,8.22,8.9,202,22,16.1,0.00420,0.00543,53.7,55.8,16,575,.,.,13.51,0.00,0.00
15min,AgWx,beryljct,423,03MAY2020:10:15:00,66.7,14.19,65.4,65.0,64.9,65.3,64.6,34,39,29,0.754,35.7,39.5,32.4,11.42,11.2,214,12,15.4,0.00453,0.00604,53.7,55.7,16,589,.,.,13.51,0.00,0.00
15min,AgWx,beryljct,423,03MAY2020:10:30:00,67.2,14.15,66.6,65.8,65.3,65.8,65.1,32,37,29,0.669,34.9,38.1,32.3,10.04,11.2,203,9.9,14.6,0.00469,0.00625,53.8,55.7,16,608,.,.,13.51,0.00,0.00
15min,AgWx,beryljct,423,03MAY2020:10:45:00,67.8,14.15,66.8,66.8,65.9,66.8,65.4,33,40,30,0.717,36.4,40.6,33.2,9.47,10.9,213,10,15.3,0.00517,0.00672,53.9,55.6,16,712,.,.,13.51,0.00,0.00
15min,AgWx,beryljct,423,03MAY2020:11:00:00,68.6,14.12,67.6,67.1,66.8,67.3,66.3,31,35,27,0.604,35.2,38.5,31.7,10.68,11.0,208,13,15.7,0.00553,0.00717,54.1,55.6,16,756,.,.,13.51,0.00,0.00
15min,AgWx,beryljct,423,03MAY2020:11:15:00,69.4,14.2,67.7,67.7,67.4,67.7,67.1,30,34,26,0.724,34.6,38.5,31.7,14.53,10.9,208,12,15.7,0.00582,0.00751,54.3,55.6,16,800,.,.,13.51,0.00,0.00
15min,AgWx,beryljct,423,03MAY2020:11:30:00,70.2,14.13,67.4,67.3,67.8,68.6,67.3,31,34,27,0.689,35.7,38.7,32.8,7.804,10.1,217,14,15.7,0.00600,0.00763,54.6,55.6,16,838,.,.,13.50,0.00,0.00
15min,AgWx,beryljct,423,03MAY2020:11:45:00,70.7,13.73,67.0,67.4,68.1,68.7,67.3,28,33,23,0.684,33.6,37.3,28.7,6.796,10.6,206,15,15.6,0.00604,0.00777,54.8,55.5,16,823,.,.,13.50,0.00,0.00
15min,AgWx,beryljct,423,03MAY2020:12:00:00,71.1,13.69,68.2,68.4,68.1,68.6,67.4,31,38,24,0.688,36.3,42.0,30.6,11.86,8.7,223,14,14.8,0.00608,0.00756,55.2,55.5,16,867,.,.,13.50,0.00,0.00
15min,AgWx,beryljct,423,03MAY2020:12:15:00,71.5,13.64,68.3,68.3,68.4,69.1,68.0,28,33,24,0.629,34.4,37.7,30.2,11,11.0,226,16,16.6,0.00643,0.00821,55.5,55.5,16,894,.,.,13.50,0.00,0.00
15min,AgWx,beryljct,423,03MAY2020:12:30:00,71.8,13.68,68.0,68.5,68.7,69.5,68.3,27,33,23,0.656,33.4,39.2,28.9,9.95,10.1,221,18,14.4,0.00661,0.00835,55.9,55.5,16,929,.,.,13.50,0.00,0.00
15min,AgWx,beryljct,423,03MAY2020:12:45:00,72.1,13.65,70.1,69.3,69.0,69.6,68.4,27,34,20,0.641,34.0,38.9,26.4,8.81,8.9,222,16,14.5,0.00661,0.00823,56.3,55.5,16,938,.,.,13.50,0.00,0.00
15min,AgWx,beryljct,423,03MAY2020:13:00:00,72.6,13.66,69.1,69.7,69.7,70.1,69.4,25,31,19,0.722,31.9,37.4,25.5,11.29,10.1,206,14,15.7,0.00683,0.00864,56.8,55.5,16,947,.,.,13.50,0.00,0.00
15min,AgWx,beryljct,423,03MAY2020:13:15:00,73.0,13.63,69.6,69.8,69.9,70.6,69.1,26,31,20,0.653,33.5,38.1,27.6,11.66,9.9,208,20,15.2,0.00689,0.00867,57.3,55.5,16,966,.,.,13.50,0.00,0.00
15min,AgWx,beryljct,423,03MAY2020:13:30:00,73.4,13.62,70.2,69.9,70.3,71.1,69.4,26,30,22,0.735,33.6,36.6,29.4,8.31,9.1,198,20,16.3,0.00689,0.00861,57.7,55.5,16,969,.,.,13.50,0.00,0.00
15min,AgWx,beryljct,423,03MAY2020:13:45:00,73.5,13.63,70.2,70.5,70.2,70.6,69.7,27,33,22,0.562,34.4,39.6,29.4,13.11,11.4,216,18,18.4,0.00704,0.00897,58.2,55.6,16,981,.,.,13.50,0.00,0.00
15min,AgWx,beryljct,423,03MAY2020:14:00:00,73.6,13.64,70.4,70.9,70.5,71.4,69.9,23,27,20,0.530,30.4,34.5,27.9,17.06,12.5,200,16,18.9,0.00723,0.00938,58.8,55.6,16,980,.,.,13.50,0.00,0.00
15min,AgWx,beryljct,423,03MAY2020:14:15:00,73.9,13.64,72.2,71.0,70.6,71.3,69.6,23,29,19,0.522,30.7,36.3,26.5,13.7,13.3,181,12,19.4,0.00731,0.00956,59.3,55.6,16,985,.,.,13.50,0.00,0.00
15min,AgWx,beryljct,423,03MAY2020:14:30:00,74.0,13.67,71.0,70.9,70.8,71.3,70.4,21,25,18,0.571,29.2,33.9,25.7,5.524,12.7,195,13,18.9,0.00729,0.00952,59.8,55.7,16,975,.,.,13.50,0.00,0.00
15min,AgWx,beryljct,423,03MAY2020:14:45:00,74.1,13.63,71.4,71.0,71.0,72.0,70.3,22,26,20,0.593,30.6,34.4,27.8,12.08,12.8,209,12,20.3,0.00721,0.00940,60.3,55.7,16,962,.,.,13.50,0.00,0.00
15min,AgWx,beryljct,423,03MAY2020:15:00:00,74.1,13.6,71.0,71.1,71.1,71.9,70.6,21,25,18,0.557,29.7,33.7,26.0,17.06,14.5,202,13,23.5,0.00723,0.00963,60.8,55.8,16,942,.,.,13.50,0.00,0.00
15min,AgWx,beryljct,423,03MAY2020:15:15:00,74.0,13.61,69.6,69.9,70.7,71.2,69.9,21,26,19,0.560,29.0,34.3,26.0,13.64,14.3,216,17,20.0,0.00708,0.00945,61.3,55.9,16,921,.,.,13.50,0.00,0.00
15min,AgWx,beryljct,423,03MAY2020:15:30:00,74.0,13.6,71.3,71.0,70.8,71.4,69.8,21,25,18,0.533,29.3,33.1,25.3,17.71,14.2,212,16,19.1,0.00691,0.00925,61.7,55.9,16,892,.,.,13.50,0.00,0.00
15min,AgWx,beryljct,423,03MAY2020:15:45:00,74.1,13.62,71.7,71.7,71.1,71.9,70.0,20,25,18,0.574,28.6,32.8,26.2,16.07,14.7,201,17,22.4,0.00685,0.00927,62.1,56.0,16,863,.,.,13.50,0.00,0.00
15min,AgWx,beryljct,423,03MAY2020:16:00:00,74.3,13.57,71.3,71.7,71.4,71.7,71.0,20,22,17,0.522,27.7,30.7,23.6,16.9,16.1,196,11,22.2,0.00682,0.00940,62.4,56.1,16,827,.,.,13.50,0.00,0.00
15min,AgWx,beryljct,423,03MAY2020:16:15:00,74.5,13.58,70.8,70.7,71.1,71.7,70.3,20,25,17,0.585,28.4,32.6,24.2,13.07,15.1,208,14,21.9,0.00639,0.00882,62.7,56.2,16,770,.,.,13.50,0.00,0.00
15min,AgWx,beryljct,423,03MAY2020:16:30:00,74.6,13.55,70.3,70.8,71.1,71.4,70.7,20,23,17,0.567,27.9,31.7,24.5,15.06,15.1,201,14,23.3,0.00631,0.00876,62.9,56.3,16,754,.,.,13.50,0.00,0.00
15min,AgWx,beryljct,423,03MAY2020:16:45:00,74.8,13.56,71.8,71.3,71.3,71.6,70.7,19,22,17,0.489,27.4,29.8,25.0,18.26,15.9,190,12,23.6,0.00620,0.00873,63.0,56.4,16,713,.,.,13.50,0.00,0.00
15min,AgWx,beryljct,423,03MAY2020:17:00:00,74.8,13.63,71.1,71.5,71.3,71.6,71.1,20,23,18,0.502,28.0,31.4,25.6,9.4,15.4,191,11,22.5,0.00577,0.00824,63.2,56.5,16,641,.,.,13.50,0.00,0.00
15min,AgWx,beryljct,423,03MAY2020:17:15:00,75.0,13.62,71.1,71.2,71.6,72.0,71.2,21,24,18,0.616,29.4,32.7,26.3,10.28,14.6,194,14,23.0,0.00558,0.00793,63.3,56.6,16,622,.,.,13.50,0.00,0.00
15min,AgWx,beryljct,423,03MAY2020:17:30:00,74.9,13.58,71.4,71.3,71.4,71.8,71.2,21,24,19,0.555,29.2,33.0,27.6,13.28,13.9,200,9.0,19.2,0.00525,0.00750,63.3,56.7,16,578,.,.,13.50,0.00,0.00
15min,AgWx,beryljct,423,03MAY2020:17:45:00,74.8,13.61,71.0,71.3,71.5,72.3,71.0,22,24,20,0.546,30.1,32.6,28.4,19.09,13.2,198,13,20.3,0.00488,0.00701,63.3,56.8,16,529,.,.,13.50,0.00,0.00
15min,AgWx,beryljct,423,03MAY2020:18:00:00,74.0,13.64,69.6,69.1,69.8,71.3,68.6,23,26,21,0.609,30.3,32.4,28.4,10.22,11.7,209,13,17.9,0.00330,0.00513,63.3,56.8,16,299,.,.,13.50,0.00,0.00
15min,AgWx,beryljct,423,03MAY2020:18:15:00,73.6,13.6,71.7,71.4,71.1,71.7,69.2,22,25,20,0.582,30.6,33.4,28.6,13.57,13.3,194,13,20.0,0.00457,0.00667,63.3,56.9,16,477,.,.,13.50,0.00,0.00
15min,AgWx,beryljct,423,03MAY2020:18:30:00,73.7,13.63,70.9,70.7,70.9,71.5,70.4,22,25,21,0.574,30.7,32.9,28.8,18.04,13.9,204,15,19.7,0.00415,0.00628,63.2,57.0,16,391,.,.,13.50,0.00,0.00
15min,AgWx,beryljct,423,03MAY2020:18:45:00,73.3,13.6,69.8,70.2,70.3,70.8,69.9,23,27,21,0.556,31.1,34.1,28.8,12.58,11.9,217,12,17.2,0.00349,0.00536,63.0,57.1,16,325,.,.,13.50,0.00,0.00
15min,AgWx,beryljct,423,03MAY2020:19:00:00,72.7,13.3,68.4,68.7,69.4,70.5,68.7,25,27,22,0.601,31.8,34.0,29.5,11.4,11.3,228,15,16.2,0.00302,0.00474,62.9,57.2,16,269,.,.,13.51,0.00,0.00
15min,AgWx,beryljct,423,03MAY2020:19:15:00,72.0,13.18,67.8,68.5,68.9,69.3,68.3,24,28,22,0.580,30.5,34.4,28.4,10.7,11.5,225,14,17.7,0.00268,0.00439,62.7,57.2,16,205,.,.,13.50,0.00,0.00
15min,AgWx,beryljct,423,03MAY2020:19:30:00,70.6,13.17,67.2,67.7,67.8,68.4,67.5,23,26,22,0.550,29.1,31.7,27.7,10.54,12.9,217,10,18.8,0.00218,0.00399,62.5,57.3,16,83,.,.,13.51,0.01,0.00
15min,AgWx,beryljct,423,03MAY2020:19:45:00,69.8,13.13,67.6,67.5,67.7,68.3,67.1,23,25,21,0.518,28.6,30.1,27.1,13.24,12.1,213,9.7,16.6,0.00130,0.00160,62.3,57.3,16,116,.,.,13.51,0.00,0.00
15min,AgWx,beryljct,423,03MAY2020:20:00:00,68.7,13.11,65.2,65.9,66.7,67.5,65.7,23,26,21,0.533,28.2,30.1,26.7,8.92,11.3,209,8.9,15.2,0.00109,0.00137,62.1,57.4,16,35,.,.,13.51,0.00,0.00
15min,AgWx,beryljct,423,03MAY2020:20:15:00,67.3,13.09,65.4,65.6,65.5,66.0,65.0,24,25,23,0.506,27.8,28.8,26.7,8.51,10.3,211,7.2,13.7,0.00096,0.00123,61.8,57.5,17,19,.,.,13.51,0.00,0.00
15min,AgWx,beryljct,423,03MAY2020:20:30:00,66.0,13.05,62.0,62.1,63.7,65.5,62.1,27,29,24,0.558,29.0,30.2,27.5,7.125,7.5,213,7.2,10.7,0.00069,0.00092,61.5,57.5,16,9,.,.,13.51,0.00,0.00
15min,AgWx,beryljct,423,03MAY2020:20:45:00,64.2,13.05,60.5,60.4,61.2,62.1,60.2,30,33,29,0.552,29.8,30.7,28.9,7.059,6.7,212,4.3,8.0,0.00053,0.00073,61.3,57.6,16,2,.,.,13.51,0.00,0.00
15min,AgWx,beryljct,423,03MAY2020:21:00:00,62.4,13.04,59.0,59.3,59.9,60.5,59.3,32,34,31,0.576,30.0,30.7,29.5,5.897,6.5,217,4.5,7.4,0.00049,0.00067,61.0,57.6,16,0,.,.,13.52,0.01,0.00
15min,AgWx,beryljct,423,03MAY2020:21:15:00,61.0,13.03,57.8,58.6,58.7,59.4,58.3,34,35,33,0.574,30.6,31.1,30.2,5.744,6.1,213,4.5,7.3,0.00042,0.00058,60.7,57.6,16,0,.,.,13.52,0.00,0.00
15min,AgWx,beryljct,423,03MAY2020:21:30:00,59.7,13.01,57.8,57.5,57.7,58.6,56.1,35,39,32,0.581,30.2,31.5,28.7,5.568,6.0,191,14,8.3,0.00040,0.00055,60.5,57.6,16,0,.,.,13.52,0.00,0.00
15min,AgWx,beryljct,423,03MAY2020:21:45:00,59.0,13.01,60.1,60.1,59.1,60.3,57.5,32,36,31,0.555,29.6,30.8,29.1,6.774,7.3,205,6.6,9.6,0.00053,0.00070,60.2,57.7,16,0,.,.,13.52,0.00,0.00
15min,AgWx,beryljct,423,03MAY2020:22:00:00,59.0,13.01,59.3,59.4,59.7,60.4,59.2,32,33,30,0.563,29.9,30.5,29.1,6.686,7.2,213,5.7,8.9,0.00053,0.00071,60.0,57.7,16,0,.,.,13.52,0.00,0.00
15min,AgWx,beryljct,423,03MAY2020:22:15:00,58.9,13,60.1,59.8,59.2,59.8,58.7,33,35,32,0.561,30.3,31.3,29.8,7.782,7.0,221,5.7,8.9,0.00050,0.00067,59.7,57.7,16,0,.,.,13.52,0.00,0.00
15min,AgWx,beryljct,423,03MAY2020:22:30:00,58.9,12.98,60.0,59.9,59.9,60.1,59.7,32,33,31,0.558,30.0,30.5,29.4,7.958,7.8,226,8.3,9.7,0.00057,0.00076,59.5,57.7,16,0,.,.,13.52,0.00,0.00
15min,AgWx,beryljct,423,03MAY2020:22:45:00,59.0,12.98,59.7,60.0,59.9,60.2,59.6,32,33,31,0.557,29.8,30.3,29.3,7.168,8.1,223,5.9,10.1,0.00060,0.00079,59.2,57.7,16,0,.,.,13.52,0.00,0.00
15min,AgWx,beryljct,423,03MAY2020:23:00:00,59.0,12.97,56.6,58.5,60.0,60.3,58.5,31,36,30,0.565,29.7,32.1,29.0,4.932,7.0,233,28,9.6,0.00053,0.00071,59.0,57.7,16,0,.,.,13.52,0.00,0.00
15min,AgWx,beryljct,423,03MAY2020:23:15:00,58.1,12.97,53.6,53.4,54.7,58.3,51.9,39,47,32,0.568,29.9,32.3,27.8,0.986,2.5,44,85,5.0,0.00002,0.00008,58.8,57.7,16,0,.,.,13.52,0.00,0.00
15min,AgWx,beryljct,423,03MAY2020:23:30:00,56.6,12.96,53.4,51.5,53.6,55.8,51.3,41,48,36,0.614,30.7,32.6,29.1,4.713,4.1,20,44,10.7,0.00017,0.00026,58.5,57.6,16,0,.,.,13.52,0.00,0.00
15min,AgWx,bigpiney,439,03MAY2020:00:00:00,44.3,12.69,40.2,40.4,39.2,40.5,38.2,71,75,65,0.556,30.5,31.5,29.4,0.855,1.2,136,54,4.1,-0.00017,-0.00023,38.5,32.3,54,0,0,0.0,6.37,0.00,0.00
15min,AgWx,bigpiney,439,03MAY2020:00:15:00,43.8,12.68,40.0,40.7,40.7,41.1,40.2,66,69,63,0.561,30.1,31.6,29.5,4.516,1.1,316,32,4.5,-0.00019,-0.00027,38.5,32.3,55,0,0,0.0,6.37,0.00,0.00
15min,AgWx,bigpiney,439,03MAY2020:00:30:00,43.6,12.68,39.4,39.1,39.1,40.6,38.8,73,74,66,0.585,31.0,31.5,30.1,1.732,2.5,289,8.5,4.1,-0.00010,-0.00011,38.4,32.3,55,0,0,0.0,6.37,0.00,0.00
15min,AgWx,bigpiney,439,03MAY2020:00:45:00,43.3,12.67,40.6,40.4,39.7,40.4,39.1,70,72,66,0.564,30.9,31.5,30.0,1.271,2.3,287,21,4.6,-0.00011,-0.00013,38.3,32.3,55,0,0,0.0,6.37,0.00,0.00
15min,AgWx,bigpiney,439,03MAY2020:01:00:00,43.2,12.66,41.0,41.1,40.2,41.1,39.5,70,77,66,0.579,31.3,33.2,30.1,3.464,2.6,286,62,6.2,-0.00009,-0.00010,38.2,32.3,55,0,0,0.0,6.37,0.00,0.00
15min,AgWx,bigpiney,439,03MAY2020:01:15:00,43.2,12.66,40.5,40.5,40.8,41.1,40.5,70,73,66,0.617,31.7,32.7,30.7,1.995,2.4,326,10,5.0,-0.00010,-0.00011,38.1,32.3,55,0,0,0.0,6.37,0.00,0.00
15min,AgWx,bigpiney,439,03MAY2020:01:30:00,43.2,12.65,40.5,40.1,40.6,40.9,39.9,71,76,68,0.625,32.0,33.2,31.3,0,1.0,288,8.7,2.3,-0.00020,-0.00027,38.0,32.3,55,0,0,0.0,6.37,0.00,0.00
15min,AgWx,bigpiney,439,03MAY2020:01:45:00,43.1,12.63,38.0,37.3,40.0,41.3,37.2,71,79,67,0.591,31.3,32.4,30.9,2.565,1.1,173,26,3.7,-0.00019,-0.00027,38.0,32.3,55,0,0,0.0,6.37,0.00,0.00
15min,AgWx,bigpiney,439,03MAY2020:02:00:00,42.8,12.63,38.5,37.9,37.7,38.2,37.3,78,81,76,0.589,31.6,32.4,31.0,1.271,2.4,151,33,3.4,-0.00012,-0.00014,37.9,32.3,55,0,0,0.0,6.37,0.00,0.00
15min,AgWx,bigpiney,439,03MAY2020:02:15:00,42.3,12.63,37.6,37.4,37.3,38.1,36.6,77,83,73,0.621,30.8,32.6,30.1,1.03,1.6,191,32,2.5,-0.00016,-0.00021,37.8,32.4,55,0,0,0.0,6.37,0.00,0.00
15min,AgWx,bigpiney,439,03MAY2020:02:30:00,41.8,12.62,38.8,38.5,37.8,38.5,37.2,76,82,73,0.580,30.9,32.4,30.3,2.389,2.1,225,15,3.3,-0.00013,-0.00017,37.7,32.3,55,0,0,0.0,6.37,0.00,0.00
15min,AgWx,bigpiney,439,03MAY2020:02:45:00,41.5,12.61,38.7,38.2,38.1,38.5,37.8,78,83,73,0.587,31.9,33.3,30.6,2.674,2.3,268,12,3.0,-0.00012,-0.00015,37.6,32.4,55,0,0,0.0,6.37,0.00,0.00
15min,AgWx,bigpiney,439,03MAY2020:03:00:00,41.4,12.61,38.8,38.6,38.8,39.2,38.2,73,76,70,0.590,30.9,31.8,30.3,1.381,1.8,289,11,2.8,-0.00014,-0.00018,37.5,32.3,55,0,0,0.0,6.37,0.00,0.00
15min,AgWx,bigpiney,439,03MAY2020:03:15:00,41.4,12.6,38.7,38.6,38.9,39.5,38.5,76,81,70,0.640,32.0,33.4,30.6,3.924,2.1,243,11,3.9,-0.00013,-0.00016,37.4,32.3,55,0,0,0.0,6.37,0.00,0.00
15min,AgWx,bigpiney,439,03MAY2020:03:30:00,41.6,12.59,40.5,40.1,39.0,40.1,38.5,78,81,73,0.617,32.6,33.2,32.2,9.82,8.0,243,17,12.1,0.00003,0.00005,37.4,32.4,55,0,0,0.0,6.37,0.00,0.00
15min,AgWx,bigpiney,439,03MAY2020:03:45:00,42.0,12.59,42.5,42.8,41.7,43.4,40.1,71,75,68,0.697,32.8,35.3,31.6,12.91,12.5,271,8.4,24.1,0.00015,0.00019,37.3,32.4,55,0,1,0.0,6.37,0.00,0.00
15min,AgWx,bigpiney,439,03MAY2020:04:00:00,42.5,12.57,41.4,41.3,41.9,42.8,41.3,79,81,75,0.713,35.7,36.1,35.4,5.809,12.8,257,7.8,20.8,0.00009,0.00012,37.2,32.4,55,0,1,0.0,6.37,0.00,0.00
15min,AgWx,bigpiney,439,03MAY2020:04:15:00,42.7,12.56,41.4,41.2,41.2,41.4,41.1,83,85,81,0.744,36.5,37.0,35.9,8.22,8.6,274,16,11.9,0.00001,0.00002,37.1,32.4,55,0,1,0.0,6.38,0.00,0.01
15min,AgWx,bigpiney,439,03MAY2020:04:30:00,42.9,12.56,41.1,40.9,41.2,41.4,40.9,85,86,84,0.746,37.1,37.3,36.9,8.7,10.1,296,8.3,13.8,0.00001,0.00003,37.0,32.4,55,0,1,0.0,6.39,0.00,0.01
15min,AgWx,bigpiney,439,03MAY2020:04:45:00,43.0,12.55,40.9,40.7,40.8,41.0,40.7,87,89,85,0.762,37.2,37.7,36.8,9.95,8.8,285,8.5,11.6,-0.00002,-0.00001,37.0,32.4,55,0,1,0.0,6.40,0.00,0.01
15min,AgWx,bigpiney,439,03MAY2020:05:00:00,43.0,12.54,40.1,40.1,40.5,40.8,40.1,87,89,84,0.754,36.8,37.8,35.9,4.319,6.3,295,47,11.7,-0.00005,-0.00004,36.9,32.3,55,0,1,0.0,6.45,0.00,0.05
15min,AgWx,bigpiney,439,03MAY2020:05:15:00,42.9,12.53,39.5,39.4,39.7,40.1,39.4,88,90,87,0.725,36.5,37.4,35.8,9.01,6.6,357,11,9.0,-0.00005,-0.00005,36.9,32.4,55,0,1,0.0,6.45,0.00,0.00
15min,AgWx,bigpiney,439,03MAY2020:05:30:00,42.6,12.52,38.7,38.5,39.0,39.4,38.5,89,90,89,0.712,36.1,36.6,35.8,6.555,7.3,26,14,9.9,-0.00005,-0.00005,36.8,32.3,55,0,1,0.0,6.45,0.00,0.00
15min,AgWx,bigpiney,439,03MAY2020:05:45:00,42.2,12.51,37.8,37.8,38.2,38.5,37.8,90,91,90,0.696,35.5,35.9,35.2,3.639,5.9,44,6.5,8.1,-0.00007,-0.00008,36.7,32.4,55,0,1,0.0,6.45,0.00,0.00
15min,AgWx,bigpiney,439,03MAY2020:06:00:00,41.4,12.49,37.3,37.1,37.4,37.8,37.0,91,92,91,0.686,35.0,35.3,34.7,1.008,2.3,40,17,4.0,-0.00016,-0.00020,36.7,32.3,55,0,1,0.0,6.45,0.00,0.00
15min,AgWx,bigpiney,439,03MAY2020:06:15:00,40.7,12.49,35.9,35.7,36.3,37.1,35.7,92,94,91,0.657,34.3,35.0,33.7,4.757,2.5,315,27,4.8,-0.00015,-0.00019,36.6,32.3,55,2,1,0.0,6.45,0.00,0.00
15min,AgWx,bigpiney,439,03MAY2020:06:30:00,39.9,12.47,35.5,35.5,35.4,35.8,35.2,93,94,93,0.654,33.7,34.0,33.4,3.551,3.6,304,17,5.0,-0.00003,-0.00000,36.5,32.4,55,7,1,0.0,6.45,0.00,0.00
15min,AgWx,bigpiney,439,03MAY2020:06:45:00,39.2,12.5,34.6,34.4,34.8,35.5,34.3,93,94,93,0.630,33.1,33.7,32.6,3.529,3.6,319,10,4.2,-0.00003,-0.00001,36.5,32.3,55,19,1,0.0,6.45,0.00,0.00
15min,AgWx,bigpiney,439,03MAY2020:07:00:00,38.7,12.52,35.5,35.1,34.8,35.1,34.4,94,94,94,0.650,33.2,33.6,32.8,4.012,3.5,303,14,5.0,-0.00004,-0.00002,36.4,32.4,55,77,1,0.0,6.45,0.00,0.00
15min,AgWx,bigpiney,439,03MAY2020:07:15:00,38.8,12.54,37.2,36.8,36.0,36.8,35.2,94,94,93,0.690,34.3,35.1,33.7,3.551,3.9,306,8.6,5.0,0.00012,0.00015,36.3,32.3,55,112,1,0.0,6.45,0.00,0.00
15min,AgWx,bigpiney,439,03MAY2020:07:30:00,39.4,12.56,38.5,37.9,37.4,38.0,36.8,92,93,89,0.687,35.2,35.5,34.9,4.384,4.1,316,12,6.2,0.00033,0.00039,36.3,32.3,55,159,1,0.0,6.45,0.00,0.00
15min,AgWx,bigpiney,439,03MAY2020:07:45:00,40.3,12.57,38.6,38.6,38.4,38.9,38.0,89,90,88,0.701,35.4,36.4,34.9,3.836,4.7,337,10,6.7,0.00056,0.00065,36.2,32.3,55,205,1,0.0,6.45,0.00,0.00
15min,AgWx,bigpiney,439,03MAY2020:08:00:00,41.4,12.79,39.0,39.1,38.7,39.1,38.4,86,88,85,0.699,35.0,35.6,34.4,3.179,3.5,337,20,6.4,0.00087,0.00099,36.2,32.3,55,276,1,0.0,6.45,0.00,0.00